STARLINK-3655, 51983

Orbit data source: Space-Track

STARLINK-3655, 51983 is a payload satellite owned by SpaceX/Seattle (US) in LEO that was launched on Wed, 09 Mar 2022 UTC via an FALCON 9 launch vehicle from the Air Force Eastern Test Range (AFETR). Payload-class satellites include a variety of spacecraft equipped with specific instruments for various scientific and technological missions. These include communications satellites like Starlink; space stations such as the ISS; scientific satellites like the Hubble; Earth observation satellites from companies like Planet Labs, Umbra, and HawkEye 360; GPS; miniature CubeSats for education and research; and military/defense satellites.

Loading next visibility...
Identifier
51983, 2022-025AD
Orbit
LEO
Country
Flag of USUS
Related business
Manufacturer
SpaceX/Seattle
Mission
Operational Commercial Communications
Bus & Motor
STARLINK, Unknown motor
Mass
297 kg wet, ~275 kg dry
Launch date (UTC)
2022-03-09 (4 years ago)
Launch vehicle
FALCON 9
Launch site
Air Force Eastern Test Range (AFETR)
Object type
Payload
Rocket body
Debris
Shape & HBR
Box + 1 Pan, 10.1 m
Radar Cross Section
13.562 m², Large (>1 m²)

Expand to show TLE details & history
Last TLE update: 12 hours ago

TLE from 12 hours ago
0 STARLINK-3655
1 51983U 22025AD  25346.96963820 -.00000448  00000-0 -10038-4 0  9994
2 51983  53.2189  68.4288 0001489  89.6728 270.4435 15.08841322207967
Epoch: 2025-12-12T23:16Z
TLE epoch observation values (Epoch: 2025-12-12T23:16:16.740Z)
Latitude
-0.00001°
Longitude
-2.54459°
Altitude
540.629 km
Speed
7.593 km/s
True Right ascension
04h 33m 42s
True Declination
0° 00' 00"
Sunlit
Object was in full shadow at epoch
Visualization orbit readout
Latitude
Unknown
Longitude
Unknown
Altitude
Unknown
Speed
Unknown
Apparent Right ascension
Unknown
Apparent Declination
Unknown
Sunlit
N/A
Visualization observer readout
Local Sidereal Time
09:17:54
Azimuth
Unknown
Elevation
Unknown
Doppler factor
Unknown
Orbital elements
Apogee altitude
541.014 km
Perigee altitude
538.954 km
Semi-major axis
6,918.121 km
Eccentricity
0.00015
Inclination
53.2189°
RAAN
68.4288°
Arg. of periapsis
89.6728°
True anomaly
270.42644°
Mean anomaly
270.4435°
Eccentric anomaly
270.43497°
Mean motion
3.77191 °/min
Orbital period
95.44 mins
BSTAR
-0.000010038
Loading maneuver chart data...
Computing Atmospheric mass density...
Loading historical data...
Loading historical data...
Loading historical data...
Loading historical data...
Loading historical data...
Loading historical data...
Loading historical data...

Documentation

Showing up to 5 results
|